Location: Malvern Link
(52.1333°N, 2.3000°W)
Time: 01:06:06
(UTC+00:00)

Cosmos 1092 Rocket - Visible Passes

Search period start: 24 January 2021 00:00
Search period end: 03 February 2021 00:00
Orbit: 953 x 996 km, 82.9° (Epoch: 23 January)

Date Brightness Start Highest point End Pass type
(mag) Time Alt. Az. Time Alt. Az. Time Alt. Az.
24 Jan 6.8 03:17:23 10° NNE 03:19:09 11° NE 03:20:54 10° ENE visible
24 Jan 4.8 05:00:17 10° N 05:06:14 48° ENE 05:12:10 10° SSE visible
24 Jan 4.5 06:45:57 10° NNW 06:51:27 35° W 06:56:58 10° SSW visible
24 Jan 3.9 18:35:55 10° S 18:42:04 71° E 18:48:12 10° NNE visible
24 Jan 5.9 20:23:01 10° WSW 20:28:03 25° WNW 20:33:06 10° N visible
25 Jan 6.4 03:41:01 10° NNE 03:45:02 18° NE 03:49:02 10° E visible
25 Jan 4.1 05:25:20 10° N 05:31:31 77° E 05:37:42 10° SSE visible
25 Jan 5.0 07:11:42 10° NNW 07:16:13 22° W 07:20:45 10° SW visible
25 Jan 5.0 17:17:44 10° SE 17:22:26 23° E 17:27:08 10° NNE visible
25 Jan 4.2 19:01:02 10° SSW 19:07:13 73° WNW 19:13:23 10° N visible
25 Jan 6.5 20:49:58 10° W 20:53:46 17° NW 20:57:34 10° NNW visible
26 Jan 5.8 04:05:34 10° N 04:10:43 27° ENE 04:15:53 10° ESE visible
26 Jan 3.9 05:50:32 10° NNW 05:56:38 67° W 06:02:45 10° S visible
26 Jan 4.4 17:41:38 10° SSE 17:47:13 38° E 17:52:49 10° NNE visible
26 Jan 5.0 19:26:38 10° SW 19:32:31 45° WNW 19:38:25 10° N visible
26 Jan 6.9 21:18:37 10° WNW 21:19:42 10° NW 21:20:46 10° NW visible
27 Jan 5.1 04:30:24 10° N 04:36:14 42° ENE 04:42:03 10° SE visible
27 Jan 4.3 06:15:55 10° NNW 06:21:36 41° W 06:27:19 10° SSW visible
27 Jan 4.0 18:06:06 10° S 18:12:10 62° E 18:18:13 10° NNE visible
27 Jan 5.8 19:52:44 10° WSW 19:58:00 29° WNW 20:03:17 10° N visible
28 Jan 6.5 03:11:21 10° NNE 03:14:55 16° NE 03:18:27 10° E visible
28 Jan 4.2 04:55:25 10° N 05:01:34 68° ENE 05:07:44 10° SSE visible
28 Jan 4.9 06:41:32 10° NNW 06:46:25 25° W 06:51:19 10° SW visible
28 Jan 4.0 18:31:05 10° SSW 18:37:16 83° W 18:43:27 10° N visible
28 Jan 6.4 20:19:27 10° W 20:23:40 19° WNW 20:27:53 10° NNW visible
29 Jan 6.0 03:35:45 10° N 03:40:39 24° ENE 03:45:33 10° ESE visible
29 Jan 3.8 05:20:34 10° NNW 05:26:44 77° W 05:32:55 10° S visible
29 Jan 5.3 07:07:41 10° NW 07:11:04 15° WNW 07:14:27 10° WSW visible
29 Jan 4.8 18:56:33 10° SSW 19:02:31 52° WNW 19:08:32 10° N visible
29 Jan 6.8 20:47:16 10° WNW 20:49:32 12° NW 20:51:47 10° NNW visible
30 Jan 5.3 04:00:32 10° N 04:06:13 37° ENE 04:11:54 10° SE visible
30 Jan 4.1 05:45:53 10° NNW 05:51:45 47° W 05:57:37 10° SSW visible
30 Jan 4.1 17:36:19 10° SSE 17:42:16 54° E 17:48:14 10° NNE visible
30 Jan 5.6 19:22:29 10° SW 19:27:57 33° WNW 19:33:27 10° N visible
31 Jan 6.6 02:41:46 10° NNE 02:44:46 14° NE 02:47:46 10° E visible
31 Jan 4.4 04:25:30 10° N 04:31:36 59° ENE 04:37:43 10° SSE visible
31 Jan 4.7 06:11:25 10° NNW 06:16:36 29° W 06:21:48 10° SW visible
31 Jan 4.0 18:01:10 10° S 18:07:20 86° E 18:13:30 10° N visible
31 Jan 6.3 19:49:00 10° WSW 19:53:34 21° WNW 19:58:09 10° N visible
01 Feb 6.1 03:05:59 10° N 03:10:35 21° ENE 03:15:10 10° ESE visible
01 Feb 3.8 04:50:37 10° N 04:56:49 87° W 05:03:02 10° S visible
01 Feb 5.2 06:37:22 10° NW 06:41:19 18° WNW 06:45:15 10° WSW visible
01 Feb 4.6 18:26:29 10° SSW 18:32:33 59° WNW 18:38:38 10° N visible
01 Feb 6.7 20:16:22 10° W 20:19:22 14° NW 20:22:22 10° NNW visible
02 Feb 5.5 03:30:40 10° N 03:36:11 33° ENE 03:41:42 10° SE visible
02 Feb 4.0 05:15:53 10° NNW 05:21:53 55° W 05:27:54 10° SSW visible
02 Feb 5.6 07:05:05 10° WNW 07:05:50 10° WNW 07:06:36 10° WNW visible
02 Feb 5.4 18:52:16 10° SW 18:57:55 37° WNW 19:03:35 10° N visible
